Header for Extended Forecast Station List Page

Search by: ID | Name | Date | Parm | Value | Avg | % Avg
Sort by: ID | Name | Date | Parm | Value | Avg | % Avg

Enter search or view all records.

Click on id for station plot
#IDNameDateParmValueAvg% Avg
0MILI1SNAKE-AT MILNER08-13-2018DISCHARGE (KAF)5522425
1PRTI1PRIEST-NEAR PRIEST RIVER08-13-2018DISCHARGE (KAF)7618441
2EASW1YAKIMA-AT EASTON08-13-2018DISCHARGE (KAF)276442
3TCHW1WALLA WALLA-NEAR TOUCHET08-13-2018DISCHARGE (KAF)152756
4MAGI1BIG WOOD-MAGIC DAM08-13-2018INFLOW (KAF)162857
5SERO3JOHN DAY-AT SERVICE CK08-13-2018DISCHARGE (KAF)497863
6TRYO3GRANDE RONDE-TROY08-13-2018DISCHARGE (KAF)13521065
7PDTO3UMATILLA-AT PENDLETON08-13-2018DISCHARGE (KAF)162367
8MONO3NF JOHN DAY-AT MONUMENT08-13-2018DISCHARGE (KAF)284168
9LAUW1KETTLE-AT LAURIER08-13-2018DISCHARGE (KAF)9013169
10TNAW1TEANAWAY-BELOW FORKS08-13-2018DISCHARGE (KAF)101569
11FCFM8NF FLATHEAD-NEAR COLUMBIA FALLS08-13-2018DISCHARGE (KAF)18025371
12LYDM8KOOTENAI-LIBBY DAM08-13-2018INFLOW (KAF)980135872
13PARW1YAKIMA-NEAR PARKER08-13-2018DISCHARGE (KAF)16222473
14WGCM8MF FLATHEAD-NEAR WEST GLACIER08-13-2018DISCHARGE (KAF)15420974
15COEI1COEUR D ALENE-COEUR D ALENE LAKE08-13-2018INFLOW (KAF)22230274
16HHWM8SF FLATHEAD-HUNGRY HORSE DAM08-13-2018INFLOW (KAF)17523375
17EMMI1PAYETTE-NEAR EMMETT08-13-2018DISCHARGE (KAF)28537975
18GIBO3UMATILLA-NEAR GIBBON08-13-2018DISCHARGE (KAF)121675
19HALI1BIG WOOD-AT HAILEY08-13-2018DISCHARGE (KAF)374877
20ALFW1PEND OREILLE-ALBENI FALLS DAM08-13-2018INFLOW (KAF)2710348978
21RIDI1WILLOW CREEK-RIRIE DAM08-13-2018INFLOW (KAF)5678
22HOTI1BRUNEAU-NEAR HOT SPRINGS08-13-2018DISCHARGE (KAF)172278
23KERM8FLATHEAD-KERR DAM08-13-2018INFLOW (KAF)1089136780
24NOXM8CLARK FORK-NOXON RAPIDS DAM08-13-2018INFLOW (KAF)2381296280
25CHDW1CHELAN-LAKE CHELAN DAM08-13-2018INFLOW (KAF)14818480
26KIOW1YAKIMA-AT KIONA08-13-2018DISCHARGE (KAF)41851581
27CFMM8FLATHEAD-AT COLUMBIA FALLS08-13-2018DISCHARGE (KAF)932113782
28ARDW1ENTIAT-NEAR ARDENVOIR08-13-2018DISCHARGE (KAF)202582
29STRM8ST. REGIS-NEAR ST. REGIS08-13-2018DISCHARGE (KAF)253183
30SATI1ST MARIES-NEAR SANTA08-13-2018DISCHARGE (KAF)161983
31PESW1WENATCHEE-AT PESHASTIN08-13-2018DISCHARGE (KAF)20725183
32CABI1CLARK FORK-CABINET GORGE DAM08-13-2018INFLOW (KAF)2620312384
33HWRI1BIG LOST-AT HOWELL RANCH NEAR CHILLY08-13-2018DISCHARGE (KAF)253084
34ORFI1CLEARWATER-AT OROFINO08-13-2018DISCHARGE (KAF)42550384
35BONO3COLUMBIA-BONNEVILLE DAM08-13-2018INFLOW (KAF)250622979384
36BITM8BITTERROOT-NEAR MISSOULA08-13-2018DISCHARGE (KAF)19322785
37CHJW1COLUMBIA-CHIEF JOSEPH DAM08-13-2018INFLOW (KAF)164101921685
38OWYO3OWYHEE-OWYHEE DAM08-13-2018INFLOW (KAF)475585
39BERO3MALHEUR-AGENCY VALLEY DAM08-13-2018INFLOW (KAF)8985
40DWRI1NF CLEARWATER-DWORSHAK DAM08-13-2018INFLOW (KAF)32137885
41WELW1COLUMBIA-WELLS DAM08-13-2018INFLOW (KAF)167651948486
42RRHW1COLUMBIA-ROCKY REACH DAM08-13-2018INFLOW (KAF)171411993086
43SWAI1SNAKE-BELOW SWAN FALLS08-13-2018DISCHARGE (KAF)1915222986
44TDAO3COLUMBIA-THE DALLES DAM08-13-2018INFLOW (KAF)245842854286
45WEII1SNAKE-AT WEISER08-13-2018DISCHARGE (KAF)2827323887
46LLKW1SPOKANE-AT LONGLAKE08-13-2018INFLOW (KAF)61269288
47PATW1METHOW-NEAR PATEROS08-13-2018DISCHARGE (KAF)9510888
48MCDW1COLUMBIA-MCNARY DAM08-13-2018INFLOW (KAF)234682657788
49PRWW1COLUMBIA-PRIEST RAPIDS DAM08-13-2018INFLOW (KAF)173501949189
50CLFW1NACHES-NEAR CLIFFDEL08-13-2018DISCHARGE (KAF)718089
51WSRI1WEISER-NEAR WEISER08-13-2018DISCHARGE (KAF)445089
52JDAO3COLUMBIA-JOHN DAY DAM08-13-2018INFLOW (KAF)239932707189
53WANW1COLUMBIA-WANAPUM DAM08-13-2018INFLOW (KAF)173501918690
54CLUW1CLE ELUM-CLE ELUM LAKE08-13-2018INFLOW (KAF)697790
55BRNI1SNAKE-BROWNLEE DAM08-13-2018INFLOW (KAF)2981330490
56MODO3DESCHUTES-AT MOODY NR BIGGS08-13-2018DISCHARGE (KAF)1029114890
57TONW1OKANOGAN-NEAR TONASKET08-13-2018DISCHARGE (KAF)25828491
58ANAW1SNAKE-NEAR ANATONE08-13-2018DISCHARGE (KAF)4375482291
59GCDW1COLUMBIA-GRAND COULEE DAM08-13-2018INFLOW (KAF)168601832492
60DEDI1DEADWOOD-NEAR LOWMAN08-13-2018INFLOW (KAF)171892
61LEOI1KOOTENAI-AT LEONIA08-13-2018DISCHARGE (KAF)1805195193
62PARI1BOISE-NEAR PARMA08-13-2018DISCHARGE (KAF)20822493
63LGDW1SNAKE-LOWER GRANITE DAM08-13-2018INFLOW (KAF)5664608993
64LGSW1SNAKE-LITTLE GOOSE DAM08-13-2018INFLOW (KAF)5664612193
65LMNW1SNAKE-LOWER MONUMENTAL DAM08-13-2018INFLOW (KAF)5678612793
66IHDW1SNAKE-ICE HARBOR DAM08-13-2018INFLOW (KAF)5681604594
67PITW1KLICKITAT-NEAR PITT08-13-2018DISCHARGE (KAF)18719496
68ARAI1SF BOISE-ANDERSON RANCH DAM08-13-2018INFLOW (KAF)686899
69WHBI1SALMON-AT WHITEBIRD08-13-2018DISCHARGE (KAF)1131113799
70SRGM8CLARK FORK-AT ST REGIS08-13-2018DISCHARGE (KAF)789785100
71HODO3HOOD-NEAR TUCKER BRIDGE08-13-2018DISCHARGE (KAF)126124102
72UNDW1WHITE SALMON-NEAR UNDERWOOD08-13-2018DISCHARGE (KAF)167163102
73TEAI1TETON-NEAR ST. ANTHONY08-13-2018DISCHARGE (KAF)147143103
74UMTW1YAKIMA-AT UMTANUM08-13-2018DISCHARGE (KAF)424408104
75RILW1TIETON-RIMROCK LAKE NEAR RIMROCK08-13-2018INFLOW (KAF)6461104
76MYKO3MCKAY CREEK-NEAR PILOT ROCK08-13-2018DISCHARGE (KAF)33105
77BIGI1BOISE-AT GLENWOOD BRIDGE08-13-2018DISCHARGE (KAF)108102106
78BELM8CLARK FORK-BELOW MISSOULA08-13-2018DISCHARGE (KAF)646603107
79PIHI1PORTNEUF-AT POCATELLO08-13-2018DISCHARGE (KAF)4340109
80PLDI1SF SNAKE-PALISADES DAM08-13-2018INFLOW (KAF)11121012110
81CSDI1NF PAYETTE-CASCADE DAM08-13-2018INFLOW (KAF)8275110
82CHEI1FALL RIVER-NEAR CHESTER08-13-2018DISCHARGE (KAF)10493112
83SPDI1CLEARWATER-AT SPALDING08-13-2018DISCHARGE (KAF)12891154112
84BONM8BLACKFOOT-NEAR BONNER08-13-2018DISCHARGE (KAF)179158113
85IPDI1HENRYS FORK-ISLAND PARK DAM08-13-2018INFLOW (KAF)151134113
86BUDW1BUMPING-BUMPING LAKE DAM08-13-2018INFLOW (KAF)2824114
87LWRI1LITTLE WOOD-LITTLE WOOD DAM08-13-2018INFLOW (KAF)1715115
88JLKW4SNAKE-JACKSON LAKE AT DAM08-13-2018INFLOW (KAF)148128116
89JKSW4SNAKE-NEAR JACKSON08-13-2018DISCHARGE (KAF)684589116
90ALPW4SNAKE-NEAR ALPINE08-13-2018DISCHARGE (KAF)819706116
91RCCM8ROCK CREEK-NEAR CLINTON08-13-2018DISCHARGE (KAF)7060117
92ABOM8CLARK FORK-ABOVE MISSOULA08-13-2018DISCHARGE (KAF)447369121
93VALO3MALHEUR-NEAR VALE08-13-2018DISCHARGE (KAF)3327122
94KADW1KACHESS-KACHESS DAM08-13-2018INFLOW (KAF)3024123
95KEDW1YAKIMA-KEECHELUS LAKE08-13-2018INFLOW (KAF)4535129
96HEII1SNAKE-NEAR HEISE08-13-2018DISCHARGE (KAF)15481187130
97REXI1HENRYS FORK-AT REXBURG08-13-2018DISCHARGE (KAF)569396144
98AFRI1SNAKE-AMERICAN FALLS RESERVOIR08-13-2018INFLOW (KAF)18851291146
99ANTI1HENRYS FORK-AT ST. ANTHONY08-13-2018DISCHARGE (KAF)476323147
100SIFI1SNAKE-AB EAGLE ROCK NR IDAHO FALLS08-13-2018DISCHARGE (KAF)15731006156
101NACW1NACHES-NEAR NACHES08-13-2018DISCHARGE (KAF)14793158
102DLGM8CLARK FORK-AT DEER LODGE08-13-2018DISCHARGE (KAF)8754162
103SHYI1SNAKE-NEAR SHELLEY08-13-2018DISCHARGE (KAF)1525852179
104BULO3BULLY CREEK-BULLY CREEK DAM08-13-2018INFLOW (KAF)10197
105BFTI1SNAKE-NEAR BLACKFOOT08-13-2018DISCHARGE (KAF)1248628199
106SNAI1SNAKE-AT BLACKFOOT08-13-2018DISCHARGE (KAF)1240603206
107MACI1BIG LOST-MACKAY RESERVOIR NEAR MACKAY08-13-2018INFLOW (KAF)3817226
108UMAO3UMATILLA-NEAR UMATILLA08-13-2018DISCHARGE (KAF)5122231
109WRMO3MALHEUR-WARM SPRINGS DAM08-13-2018INFLOW (KAF)447634
110BFEI1KOOTENAI-AT BONNERS FERRY08-13-2018STAGE (FT)MMM
111DRMM8CLARK FORK-NR DRUMMOND08-13-2018DISCHARGE (KAF)185MM
112HOPI1PEND OREILLE-PEND OREILLE LAKE NR HOPE08-13-2018LAKE ELEVATION (FT)MMM
113SPOW1SPOKANE-AT SPOKANE08-13-2018DISCHARGE (KAF)449MM
114SJMI1ST JOE-AT ST MARIES08-13-2018STAGE (FT)MMM
115CIBW1COLUMBIA-AT INTL BOUNDARY08-13-2018DISCHARGE (KAF)16113MM
116LUCI1BOISE-LUCKY PEAK DAM08-13-2018INFLOW (KAF)303MM